Weather History for Madison, WI

Change the Weather History Date:

Tuesday, October 25, 2011

  Actual Average Record
Temperature  
Mean Temperature 55 °F 46 °F  
Max Temperature 65 °F 55 °F 78 °F (1989)
Min Temperature 45 °F 36 °F 12 °F (1887)
Degree Days  
Heating Degree Days 10 19  
Month to date heating degree days 259 382  
Since 1 July heating degree days 475 590  
Cooling Degree Days 0 0  
Month to date cooling degree days 10 0  
Year to date cooling degree days 814 564  
Growing Degree Days 5 (Base 50)    
Moisture  
Dew Point 45 °F    
Average Humidity 75    
Maximum Humidity 93    
Minimum Humidity 56    
Precipitation  
Precipitation 0.03 in 0.08 in 0.86 in (1932)
Month to date precipitation 1.29 1.92  
Year to date precipitation 24.90 29.87  
Snow  
Snow 0.00 in 0.00 in 1.00 in (1898)
Month to date snowfall 0.0 0.3  
Since 1 July snowfall 0.0 0.3  
Since 1 September snowfall 0.0 0.3  
Snow Depth 0.00 in    
Sea Level Pressure  
Sea Level Pressure 29.87 in    
Wind  
Wind Speed 9 mph (East)    
Max Wind Speed 22 mph    
Max Gust Speed 31 mph    
Visibility 9 miles    
Events Rain    
T = Trace of Precipitation, MM = Missing Value Source: NWS Daily Summary

Daily Weather History Graph

Daily Weather History Graph

Search for Another Location

Airport:

Trip Planner

Search our weather history database for the weather conditions in past years. The results will help you decide how hot, cold, wet, or windy it might be!

Date:

Astronomy

Oct. 25, 2011 Rise Set
Actual Time 7:22 AM CDT 5:59 PM CDT
Civil Twilight 6:53 AM CDT 6:28 PM CDT
Nautical Twilight 6:20 AM CDT 7:01 PM CDT
Astronomical Twilight 5:47 AM CDT 7:34 PM CDT
Moon 5:54 AM CDT (10/25) 5:00 PM CDT (10/25)
Length of Visible Light 11h 34m
Length of Day
10h 36m
Waning Crescent, 2% of the Moon is Illuminated
Oct 25
Waning Crescent
Oct 26
New
Nov 2
First Quarter
Nov 10
Full
Nov 18
Last Quarter

Hourly Weather History & Observations

Time (CDT) Temp. Dew Point Humidity Pressure Visibility Wind Dir Wind Speed Gust Speed Precip Events Conditions
12:53 AM 50.0 °F 39.9 °F 68% 30.05 in 10.0 mi South 4.6 mph - N/A   Overcast
1:53 AM 51.1 °F 39.9 °F 66% 30.03 in 10.0 mi Calm Calm - 0.00 in   Overcast
2:53 AM 52.0 °F 39.9 °F 63% 30.02 in 10.0 mi Calm Calm - N/A   Overcast
3:53 AM 48.9 °F 43.0 °F 80% 30.01 in 9.0 mi ENE 3.5 mph - 0.01 in Rain Light Rain
4:53 AM 50.0 °F 44.1 °F 80% 29.95 in 10.0 mi ESE 8.1 mph - 0.01 in   Overcast
5:53 AM 52.0 °F 42.1 °F 69% 29.93 in 10.0 mi SSE 5.8 mph - 0.00 in Rain Light Rain
6:53 AM 48.9 °F 44.1 °F 83% 29.93 in 10.0 mi ENE 5.8 mph - 0.00 in   Mostly Cloudy
7:53 AM 48.9 °F 45.0 °F 86% 29.93 in 10.0 mi Calm Calm - 0.00 in Rain Light Rain
8:53 AM 51.1 °F 45.0 °F 80% 29.91 in 10.0 mi ESE 6.9 mph - 0.00 in   Scattered Clouds
9:53 AM 53.1 °F 45.0 °F 74% 29.90 in 10.0 mi SE 6.9 mph - N/A   Scattered Clouds
10:53 AM 57.0 °F 46.0 °F 67% 29.87 in 10.0 mi South 11.5 mph - N/A   Scattered Clouds
11:53 AM 60.1 °F 46.9 °F 62% 29.84 in 10.0 mi South 10.4 mph - N/A   Partly Cloudy
12:53 PM 63.0 °F 48.0 °F 58% 29.80 in 10.0 mi South 5.8 mph - N/A   Partly Cloudy
1:53 PM 64.9 °F 48.9 °F 56% 29.77 in 10.0 mi SSE 5.8 mph - N/A   Mostly Cloudy
2:53 PM 62.1 °F 52.0 °F 70% 29.74 in 10.0 mi Variable 6.9 mph - 0.00 in   Mostly Cloudy
3:53 PM 64.9 °F 48.9 °F 56% 29.75 in 10.0 mi Calm Calm - N/A   Overcast
4:53 PM 57.0 °F 48.9 °F 74% 29.79 in 8.0 mi NNE 13.8 mph - N/A   Overcast
5:53 PM 54.0 °F 46.9 °F 77% 29.80 in 8.0 mi NNE 16.1 mph 21.9 mph N/A   Overcast
6:53 PM 50.0 °F 45.0 °F 83% 29.81 in 8.0 mi NNE 12.7 mph 19.6 mph N/A   Mostly Cloudy
7:27 PM 50.0 °F 44.6 °F 82% 29.80 in 8.0 mi NNE 10.4 mph 19.6 mph N/A   Mostly Cloudy
7:53 PM 50.0 °F 45.0 °F 83% 29.81 in 8.0 mi NE 11.5 mph - N/A   Overcast
8:53 PM 48.9 °F 44.1 °F 83% 29.83 in 8.0 mi NNE 15.0 mph - N/A   Overcast
9:53 PM 48.0 °F 44.1 °F 86% 29.85 in 6.0 mi NNE 13.8 mph - 0.00 in   Overcast
10:53 PM 46.9 °F 44.1 °F 90% 29.85 in 9.0 mi NNE 17.3 mph 20.7 mph 0.01 in   Overcast
11:53 PM 46.9 °F 43.0 °F 86% 29.86 in 10.0 mi NNE 17.3 mph 31.1 mph N/A   Overcast